Flag for Poland Weather past 2 weeks in Słupsk, Poland

Now
60 °F

Passing clouds.


Feels Like: 60 °F
Forecast: 63 / 82 °F
Wind: 2 mph from East

Location: Leba

Current Time: Aug 2, 2014 at 12:49:26 AM

Latest Report: Aug 2, 2014 at 12:00 AM


Visibility: 13 mi

Pressure: 30.01 "Hg

Humidity: 89%

Dew point: 57 °F

Location of SłupskLocation

Historic Weather in Słupsk — Graph

°F

Słupsk temperature yesterday

Maximum temperature yesterday: 73 °F (at 2:00 PM)
Minimum temperature yesterday: 54 °F (at 5:00 AM)
Average temperature yesterday: 66 °F

Past Weeks' High & Low Weather Summary

 TemperatureHumidityPressure
High87 °F (Jul 30, 12:00 PM)97% (Jul 18, 4:00 AM)30.20 "Hg (Jul 18, 4:00 AM)
Low50 °F (Jul 18, 3:00 AM)36% (Jul 30, 5:00 PM)29.67 "Hg (Jul 30, 6:00 PM)
Average69 °F79%29.99 "Hg
* Reported Jul 17 11:00 PM — Aug 1 11:00 PM, Słupsk, Weather by CustomWeather, © 2014

Note: Actual official high and low records may vary slightly from our data, if they occured in-between our weather recording intervals... More about our weather records

Advertising

Słupsk weather history for previous 24 hours

 ConditionsComfort  
Time TempWeatherWind HumidityBarometerVisibility
11:00 PM
Aug 1
63 °FPassing clouds.2 mph84%30.01 "Hg12 mi
10:00 PM65 °FPassing clouds.3 mph78%30.01 "Hg12 mi
9:00 PM67 °FPassing clouds.3 mph73%30.00 "Hg12 mi
8:00 PM70 °FPartly sunny.3 mph74%29.99 "Hg12 mi
7:00 PM72 °FPartly sunny.5 mph68%29.99 "Hg12 mi
6:00 PM71 °FOvercast.6 mph67%29.99 "Hg12 mi
5:00 PM71 °FPartly sunny.5 mph68%30.00 "Hg12 mi
4:00 PM73 °FScattered clouds.3 mph69%30.00 "Hg12 mi
3:00 PM72 °FScattered clouds.3 mph71%30.00 "Hg12 mi
2:00 PM73 °FPassing clouds.26 mph67%30.01 "Hg5 mi
1:00 PM73 °FScattered clouds.3 mph66%30.01 "Hg12 mi
12:00 PM72 °FScattered clouds.3 mph69%30.01 "Hg12 mi
11:00 AM72 °FScattered clouds.2 mph66%30.01 "Hg12 mi
10:00 AM71 °FPartly sunny.2 mph70%30.01 "Hg12 mi
9:00 AM69 °FPassing clouds.3 mph76%30.00 "Hg12 mi
8:00 AM65 °FPassing clouds.2 mph81%29.99 "Hg12 mi
7:00 AM60 °FPassing clouds.2 mph92%29.98 "Hg12 mi
6:00 AM56 °FPassing clouds.5 mph95%29.98 "Hg12 mi
5:00 AM54 °FPassing clouds.22 mph95%29.98 "Hg2 mi
4:00 AMN/APassing clouds.13 mphN/AN/A2 mi
3:00 AM56 °FPassing clouds.3 mph91%29.98 "Hg12 mi
2:00 AM56 °FPassing clouds.3 mph93%29.97 "Hg12 mi
1:00 AM58 °FPassing clouds.5 mph91%29.96 "Hg12 mi
12:00 AM58 °FPassing clouds.1 mph91%29.96 "Hg12 mi
Weather by CustomWeather, © 2014

See weather overviewHow to use our weather pages